Regional Weather Roundup
Issued by NWS

Home | Current Version | Previous Version | Text Only | Print | Product List | Glossary On
Versions: 1 2 3 4 5 6 7 8 9 10 11 12 13 14 15 16 17 18 19 20 21 22 23 24 25 26 27 28 29 30 31 32 33 34 35 36 37 38 39 40 41 42 43 44 45 46 47 48 49 50
000
ASUS43 KDMX 130107
RWRIA

WEATHER ROUNDUP FOR IOWA
NATIONAL WEATHER SERVICE DES MOINES IA
800 PM CDT SAT JUL 12 2014

NOTE: "FAIR" INDICATES FEW OR NO CLOUDS BELOW 12,000 FEET WITH NO
SIGNIFICANT WEATHER AND/OR OBSTRUCTIONS TO VISIBILITY.

* - THESE STATIONS ARE NOT NWS STATIONS...THUS NOT UNDER NWS
QUALITY CONTROL.  THEY ALSO DO NOT REPORT WEATHER SUCH
AS PRECIPITATION OR FOG.

IAZ001>003-012>014-020>022-031>034-043>046-130200-
   NORTHWEST IOWA

CITY           SKY/WX    TMP DP  RH WIND       PRES   REMARKS
CARROLL *      CLEAR     72  68  88 N6        29.98R
CHEROKEE *     CLEAR     75  70  83 W5        29.99S
DENISON *      CLEAR     73  68  83 N7        29.98R
LE MARS *      CLEAR     77  70  78 W5        30.01R
ORANGE CITY *  CLEAR     79  70  73 W5        30.01R HX  81
SHELDON *      CLEAR     77  68  73 W6        29.99S
SIOUX CITY     CLEAR     77  69  76 NW6       30.00R
SPENCER        CLEAR     77  69  76 W7        29.98S
STORM LAKE *   CLEAR     72  72 100 NW8       30.00S
$$

IAZ055>058-069>071-079>083-090>094-130200-
   SOUTHWEST IOWA

CITY           SKY/WX    TMP DP  RH WIND       PRES   REMARKS
ATLANTIC *     MOCLDY    75  72  88 NE9       29.96R
AUDUBON *      MOCLDY    73  70  88 N6        29.99S
CLARINDA *     MOCLDY    81  73  78 CALM      29.95S HX  85
COUNCIL BLFS * CLEAR     77  73  88 N9        29.96R
CRESTON *      PTCLDY    79  73  83 N9        29.96S HX  82
HARLAN  *      MOCLDY    73  70  88 NE9       30.01R
LAMONI         CLOUDY    81  74  79 SW14G22   29.93F HX  86
RED OAK *      MOCLDY    79  73  83 NE9       29.95S HX  82
SHENANDOAH *   CLEAR     81  73  78 N10       29.95R HX  85
$$

IAZ047>049-059>061-072>074-084-130200-
   CENTRAL IOWA

CITY           SKY/WX    TMP DP  RH WIND       PRES   REMARKS
AMES           MOCLDY    72  67  84 N9        29.96R
ANKENY *       PTCLDY    73  70  88 N14       29.94R
CHARITON *     CLOUDY    73  72  94 NW13      29.95F FOG
DES MOINES     MOCLDY    76  70  82 N9        29.93S
GRINNELL*      CLOUDY    73  68  83 CALM      29.95R
KNOXVILLE *    CLOUDY    75  72  88 S6G13     29.92R
MARSHALLTOWN   CLOUDY    68  66  93 N10       29.94R
PELLA *        MOCLDY    77  72  83 CALM      29.92R
PERRY *        CLOUDY    72  68  88 N6        29.97S
$$

IAZ004>006-015-016-023>025-035-036-130200-
   NORTH CENTRAL IOWA

CITY           SKY/WX    TMP DP  RH WIND       PRES   REMARKS
ALGONA *       CLEAR     73  70  88 W5        29.98R
CLARION *      PTCLDY    72  70  94 CALM      29.97R
ESTHERVILLE    PTCLDY    76  66  71 N7        29.97S
FORT DODGE *   PTCLDY    72  66  83 CALM      29.98R
MASON CITY     PTCLDY    72  67  84 W8        29.97R
FOREST CITY *  CLEAR     72  68  88 W6        29.97R
IOWA FALLS *     N/A     70  66  88 CALM      29.96F
$$

IAZ007>011-017>019-026>030-037>042-050>054-066-130200-
   NORTHEAST IOWA

CITY           SKY/WX    TMP DP  RH WIND       PRES   REMARKS
CEDAR RAPIDS   LGT RAIN  73  70  90 SW13G23   29.86F FOG
CHARLES CITY * PTCLDY    68  66  94 CALM      29.95S
CLINTON *      CLOUDY    73  70  88 S6        29.86F
DECORAH *        N/A    N/A N/A N/A MISG        N/A
DUBUQUE        TSTM      74  74 100 N26G32    29.90S
MONTICELLO *   CLOUDY    75  72  88 N22       29.86S
OELWEIN *      LGT RAIN  66  66 100 CALM      29.94F
WATERLOO       CLOUDY    67  65  93 E3        29.92F
$$

IAZ064-065-067-068-078-130200-
   EAST CENTRAL IOWA

CITY           SKY/WX    TMP DP  RH WIND       PRES   REMARKS
DAVENPORT      TSTM      81  74  79 SW14      29.85F HX  86
IOWA CITY      HVY RAIN  72  72 100 CALM      29.90F FOG
MT. PLEASANT * CLOUDY    84  73  70 SW8       29.90S HX  91
MUSCATINE *    MOCLDY    82  77  83 S9        29.86F HX  91
QUAD CITIES    MOCLDY    82  74  76 SW7       29.86F HX  88
$$

IAZ062-063-075>077-085>089-095>099-130200-
   SOUTHEAST IOWA

CITY           SKY/WX    TMP DP  RH WIND       PRES   REMARKS
BURLINGTON     MOCLDY    84  75  74 S9        29.90F HX  92
FAIRFIELD *    DRIZZLE   79  73  83 NW22G31   29.93R HX  82
FORT MADISON * CLEAR     84  75  74 S8        29.92R HX  92
KEOKUK *       CLEAR     84  75  74 SW10      29.91R HX  92
OSKALOOSA *    DRIZZLE   73  72  94 SW16G22   29.94R
CENTERVILLE *  LGT RAIN  81  75  83 S7        29.94R HX  86
OTTUMWA        LGT RAIN  70  67  90 SW10G23   29.94F
WASHINGTON *   LGT RAIN  77  75  94 SW7G14    29.89S
$$

ABBREVIATIONS USED IN REMARKS
   TC - TEMPERATURES IN CELSIUS
  WCI - WIND CHILL INDEX
   HX - HEAT INDEX
  VSB - VISIBILITY
$$



USA.gov is the U.S. government's official web portal to all federal, state and local government web resources and services.